一网星座-0613星 (ONEWEB-0613)

导读 | 星芒AI

ONEWEB-0613 卫星是 OneWeb 低轨卫星通信星座的一部分,旨在为全球提供高速互联网服务。该卫星采用标准化设计,具备高容量通信能力,支持偏远和农村地区的网络接入。由阿丽亚娜集团发射,运行于约 1200 公里高度的近地轨道,是 OneWeb 扩展其全球覆盖计划的重要组成。该星座致力于实现全球无缝宽带连接,推动数字包容性发展。

基本信息
目录编号:
56071
目录名称:
ONEWEB-0613
国际标识:
2023-043AB
轨道中心:
EARTH
卫星名称:
一网星座-0613星
卫星全名:
一网星座-0613星 (ONEWEB-0613)
卫星状态:
在轨 (已飞行949 天)
发射日期:
2023-03-26 UTC
国别 :
英国 (GB)
星等 :
--
轨道信息
数据来源 国际轨道数据
星历时间: 2025-10-30T06:52:59+0800
6小时前
查看轨道信息
半长轴: 7579.918km
偏心率: 0.0002025
轨道倾角: 87.896°
近地点辐角 97.395°
升交点赤经 305.177°
平近点角 262.740°
近地点: 1200.248km
远地点: 1203.318km
周期: 109.460分钟
每日圈数: 13.155461
详细信息
平衡模式:
三轴稳定
覆盖范围:
全球
运营商:
一网卫星公司
运营商所在国:
英国
制造商(研发单位):
一网卫星公司
制造商所在国:
英国
使用方式:
暂无
卫星简介
OneWeb卫星网络由648颗重约125公斤的微型卫星组成,运行在1200公里的轨道上。 每颗卫星都能够提供至少每秒8千兆位的吞吐量,以使用其高吞吐量的Ku频段有效载荷为家庭和移动平台提供互联网接入。该卫星仍在工作。
2D轨道图
3D轨道图
轨道高度分析图
轨道倾角分析图
轨道综合分析图
查看轨道综合分析图